CAPE
2 1 1 1 0 0 0 0 0 0 0 0 0 0 0 0 0 0 0 0 0 0 0 0 0 0 0 0 0 0 0 0 0 0 0 0 0 0 0 261 954 975 785 1171 2284
0 0 1 1 1 0 0 0 0 0 0 0 0 0 0 0 0 0 0 0 0 0 0 0 0 0 0 0 0 0 0 0 0 0 0 0 0 0 0 0 40 329 995 1237 2150
0 0 0 0 1 1 1 1 0 0 0 0 0 0 0 0 0 0 0 0 0 0 0 0 0 0 0 0 0 0 0 0 0 0 0 0 0 0 0 0 0 0 51 1055 2015
0 0 0 0 1 0 0 0 0 0 0 0 0 0 0 0 0 0 0 0 0 0 0 0 0 0 0 0 0 0 0 0 0 0 0 0 0 0 0 0 0 0 42 869 1754
0 0 0 0 0 0 0 0 0 0 0 0 0 0 0 0 0 0 0 0 0 0 0 0 0 0 0 0 0 0 0 0 0 0 0 0 0 0 0 0 0 3 371 914 1526
0 0 0 0 0 0 0 0 0 0 0 0 0 0 0 0 0 0 0 0 0 0 0 0 0 0 0 0 0 0 0 0 0 0 0 0 0 0 0 0 0 80 130 535 1205
0 0 0 0 0 0 0 0 0 0 0 0 0 0 0 0 0 0 0 0 0 0 0 0 0 0 0 0 0 0 0 0 0 0 0 0 0 0 0 0 0 0 6 365 825
0 0 0 0 0 0 0 0 0 0 0 0 0 0 0 0 0 0 0 0 0 0 0 0 0 0 0 0 0 0 0 0 0 0 0 0 0 0 0 0 10 55 49 0 418
0 0 0 0 0 0 0 0 0 0 0 0 0 0 0 0 0 0 0 0 0 0 0 0 0 0 0 0 0 0 0 0 0 0 0 0 0 0 0 29 179 346 513 109 862
0 0 0 0 0 0 0 0 0 0 0 0 0 0 0 0 0 0 0 0 0 0 0 0 0 0 0 0 0 0 0 0 0 0 0 0 0 0 0 41 231 482 683 967 867
0 0 0 0 0 0 0 0 0 0 0 0 0 0 0 0 0 0 0 0 0 0 0 0 0 0 0 0 0 0 0 0 0 0 0 0 0 0 15 46 218 415 642 995 1211
0 0 0 0 0 0 0 0 0 0 0 0 0 0 0 0 0 0 0 0 0 0 0 0 0 0 0 0 0 0 0 0 0 0 0 0 0 0 18 122 254 258 256 331 542
0 0 0 0 0 0 0 0 0 0 0 0 0 0 0 0 0 0 0 0 0 0 0 0 0 0 0 0 0 0 0 0 0 0 0 0 0 0 0 87 214 123 65 57 55
0 0 0 0 0 0 0 0 0 0 0 0 0 0 0 0 0 0 0 0 0 0 0 0 0 0 0 0 0 0 0 0 0 0 0 0 0 0 3 60 173 139 86 61 73
0 0 0 0 0 0 0 0 0 0 0 0 0 0 0 0 0 0 0 0 0 0 0 0 0 0 0 0 0 0 0 0 0 0 0 0 0 0 0 4 181 215 129 38 13
0 0 0 0 0 0 0 0 0 0 0 0 0 0 0 0 0 0 0 0 0 0 0 0 0 0 0 0 0 0 0 0 0 0 0 0 0 0 0 0 127 161 94 28 24
0 0 0 0 0 0 0 0 0 0 0 0 0 0 0 0 0 0 0 0 0 0 0 0 0 0 0 0 0 0 0 0 0 0 0 0 0 0 3 8 107 194 133 56 1
0 0 0 0 0 0 0 0 0 0 0 0 0 0 0 0 0 0 0 0 0 0 0 0 0 0 0 0 0 0 0 0 0 0 4 0 0 0 3 44 45 69 60 7 12
0 0 0 0 0 0 0 0 0 0 0 0 0 0 0 0 0 0 0 0 0 0 0 0 0 0 0 0 0 0 0 0 0 0 0 0 1 7 11 62 35 25 39 23 23
0 0 0 0 0 0 0 0 0 0 0 0 0 0 0 0 0 0 0 0 0 0 0 0 1 0 0 0 0 0 0 0 0 0 2 0 1 8 41 142 159 149 90 192 140
0 0 0 0 0 0 0 0 0 0 0 0 0 0 0 0 0 0 0 0 0 0 0 0 0 0 0 0 0 0 0 0 4 12 34 12 12 52 27 31 219 288 177 236 233
0 0 0 0 0 0 0 0 0 0 0 0 0 0 0 0 0 0 0 0 0 0 0 0 1 0 1 0 0 0 14 36 99 3 13 13 3 0 0 8 6 192 296 198 219
0 0 0 0 0 0 0 0 0 0 0 0 0 0 0 0 0 0 0 0 0 0 0 0 0 0 5 6 0 0 0 0 50 113 58 206 38 0 27 30 217 318 195 169 198
0 0 0 0 0 0 0 0 0 0 0 0 0 0 0 0 0 0 0 0 0 0 0 0 0 1 10 29 42 39 13 14 79 340 14 10 17 137 44 28 134 78 30 135 135
0 0 0 0 0 0 0 0 0 0 0 0 0 0 0 0 0 0 0 0 0 0 0 0 0 0 0 0 0 2 1 23 23 4 45 1 27 80 48 19 34 17 11 81 109
0 0 0 0 0 0 0 0 0 0 0 0 0 1 0 0 0 0 3 0 0 0 0 0 0 2 1 4 5 0 0 0 0 0 3 0 0 24 6 5 0 10 8 61 90
0 0 0 0 0 0 0 0 0 0 0 2 2 1 0 0 4 13 6 3 4 0 1 0 0 15 2 23 36 6 0 0 0 0 0 0 0 21 10 2 0 0 0 0 69
CIN
-0 -0 -0 -0 -0 -0 -0 -0 -0 -0 -0 -0 -0 -0 -0 -0 -0 -0 -0 -0 -0 -0 -0 -0 -0 -0 -0 -0 -0 -0 -0 -0 -0 -0 -0 -0 -0 -0 -0 -38 -34 -25 -19 -57 -79
-0 -0 -0 -0 -0 -0 -0 -0 -0 -0 -0 -0 -0 -0 -0 -0 -0 -0 -0 -0 -0 -0 -0 -0 -0 -0 -0 -0 -0 -0 -0 -0 -0 -0 -0 -0 -0 -0 -0 -0 -32 -46 -72 -106 -111
-0 -0 -0 -0 -0 -0 -0 -0 -0 -0 -0 -0 -0 -0 -0 -0 -0 -0 -0 -0 -0 -0 -0 -0 -0 -0 -0 -0 -0 -0 -0 -0 -0 -0 -0 -0 -0 -0 -0 -0 -0 -0 -16 -85 -91
-0 -0 -0 -0 -0 -0 -0 -0 -0 -0 -0 -0 -0 -0 -0 -0 -0 -0 -0 -0 -0 -0 -0 -0 -0 -0 -0 -0 -0 -0 -0 -0 -0 -0 -0 -0 -0 -0 -0 -0 -0 -0 -74 -82 -72
-0 -0 -0 -0 -0 -0 -0 -0 -0 -0 -0 -0 -0 -0 -0 -0 -0 -0 -0 -0 -0 -0 -0 -0 -0 -0 -0 -0 -0 -0 -0 -0 -0 -0 -0 -0 -0 -0 -0 -0 -0 -52 -106 -86 -68
-0 -0 -0 -0 -0 -0 -0 -0 -0 -0 -0 -0 -0 -0 -0 -0 -0 -0 -0 -0 -0 -0 -0 -0 -0 -0 -0 -0 -0 -0 -0 -0 -0 -0 -0 -0 -0 -0 -0 -0 -0 -127 -82 -67 -75
-0 -0 -0 -0 -0 -0 -0 -0 -0 -0 -0 -0 -0 -0 -0 -0 -0 -0 -0 -0 -0 -0 -0 -0 -0 -0 -0 -0 -0 -0 -0 -0 -0 -0 -0 -0 -0 -0 -0 -0 -0 -0 -11 -76 -54
-0 -0 -0 -0 -0 -0 -0 -0 -0 -0 -0 -0 -0 -0 -0 -0 -0 -0 -0 -0 -0 -0 -0 -0 -0 -0 -0 -0 -0 -0 -0 -0 -0 -0 -0 -0 -0 -0 -0 -0 -195 -198 -186 -0 -70
-0 -0 -0 -0 -0 -0 -0 -0 -0 -0 -0 -0 -0 -0 -0 -0 -0 -0 -0 -0 -0 -0 -0 -0 -0 -0 -0 -0 -0 -0 -0 -0 -0 -0 -0 -0 -0 -0 -0 -243 -157 -100 -74 -180 -72
-0 -0 -0 -0 -0 -0 -0 -0 -0 -0 -0 -0 -0 -0 -0 -0 -0 -0 -0 -0 -0 -0 -0 -0 -0 -0 -0 -0 -0 -0 -0 -0 -0 -0 -0 -0 -0 -0 -0 -223 -140 -87 -81 -110 -167
-0 -0 -0 -0 -0 -0 -0 -0 -0 -0 -0 -0 -0 -0 -0 -0 -0 -0 -0 -0 -0 -0 -0 -0 -0 -0 -0 -0 -0 -0 -0 -0 -0 -0 -0 -0 -0 -0 -264 -211 -144 -136 -169 -137 -171
-0 -0 -0 -0 -0 -0 -0 -0 -0 -0 -0 -0 -0 -0 -0 -0 -0 -0 -0 -0 -0 -0 -0 -0 -0 -0 -0 -0 -0 -0 -0 -0 -0 -0 -0 -0 -0 -0 -243 -198 -204 -254 -288 -332 -276
-0 -0 -0 -0 -0 -0 -0 -0 -0 -0 -0 -0 -0 -0 -0 -0 -0 -0 -0 -0 -0 -0 -0 -0 -0 -0 -0 -0 -0 -0 -0 -0 -0 -0 -0 -0 -0 -0 -0 -223 -253 -436 -522 -517 -511
-0 -0 -0 -0 -0 -0 -0 -0 -0 -0 -0 -0 -0 -0 -0 -0 -0 -0 -0 -0 -0 -0 -0 -0 -0 -0 -0 -0 -0 -0 -0 -0 -0 -0 -0 -0 -0 -0 -59 -177 -197 -342 -461 -469 -443
-0 -0 -0 -0 -0 -0 -0 -0 -0 -0 -0 -0 -0 -0 -0 -0 -0 -0 -0 -0 -0 -0 -0 -0 -0 -0 -0 -0 -0 -0 -0 -0 -0 -0 -0 -0 -0 -0 -0 -210 -144 -242 -366 -468 -469
-0 -0 -0 -0 -0 -0 -0 -0 -0 -0 -0 -0 -0 -0 -0 -0 -0 -0 -0 -0 -0 -0 -0 -0 -0 -0 -0 -0 -0 -0 -0 -0 -0 -0 -0 -0 -0 -0 -0 -0 -117 -220 -295 -392 -359
-0 -0 -0 -0 -0 -0 -0 -0 -0 -0 -0 -0 -0 -0 -0 -0 -0 -0 -0 -0 -0 -0 -0 -0 -0 -0 -0 -0 -0 -0 -0 -0 -0 -0 -0 -0 -0 -0 -35 -87 -80 -104 -210 -280 -45
-0 -0 -0 -0 -0 -0 -0 -0 -0 -0 -0 -0 -0 -0 -0 -0 -0 -0 -0 -0 -0 -0 -0 -0 -0 -0 -0 -0 -0 -0 -0 -0 -0 -0 -0 -0 -0 -0 -43 -147 -161 -154 -214 -122 -205
-0 -0 -0 -0 -0 -0 -0 -0 -0 -0 -0 -0 -0 -0 -0 -0 -0 -0 -0 -0 -0 -0 -0 -0 -0 -0 -0 -0 -0 -0 -0 -0 -0 -0 -0 -0 -0 -44 -131 -131 -164 -184 -190 -200 -170
-0 -0 -0 -0 -0 -0 -0 -0 -0 -0 -0 -0 -0 -0 -0 -0 -0 -0 -0 -0 -0 -0 -0 -0 -0 -0 -0 -0 -0 -0 -0 -0 -0 -0 -0 -0 -0 -0 -29 -32 -68 -96 -115 -86 -82
-0 -0 -0 -0 -0 -0 -0 -0 -0 -0 -0 -0 -0 -0 -0 -0 -0 -0 -0 -0 -0 -0 -0 -0 -0 -0 -0 -0 -0 -0 -0 -0 -1 -0 -0 -0 -0 -2 -1 -0 -12 -23 -53 -63 -57
-0 -0 -0 -0 -0 -0 -0 -0 -0 -0 -0 -0 -0 -0 -0 -0 -0 -0 -0 -0 -0 -0 -0 -0 -5 -0 -0 -0 -0 -0 -0 -0 -0 -0 -0 -0 -0 -0 -1 -5 -10 -7 -27 -34 -39
-0 -0 -0 -0 -0 -0 -0 -0 -0 -0 -0 -0 -0 -0 -0 -0 -0 -0 -0 -0 -0 -0 -0 -0 -0 -0 -0 -0 -0 -0 -0 -0 -0 -0 -0 -0 -2 -0 -39 -20 -17 -4 -10 -24 -41
-0 -0 -0 -0 -0 -0 -0 -0 -0 -0 -0 -0 -0 -0 -0 -0 -0 -0 -0 -0 -0 -0 -0 -0 -0 -0 -0 -0 -2 -0 -3 -1 -0 -0 -0 -0 -0 -7 -17 -9 -10 -9 -6 -9 -30
-0 -0 -0 -0 -0 -0 -0 -0 -0 -0 -0 -0 -0 -0 -0 -0 -0 -0 -0 -0 -0 -0 -0 -0 -0 -0 -0 -0 -0 -0 -0 -0 -0 -0 -0 -0 -0 -0 -1 -3 -1 -0 -5 -4 -12
-0 -0 -0 -0 -0 -0 -0 -0 -0 -0 -0 -0 -0 -0 -0 -0 -0 -0 -0 -0 -0 -0 -0 -0 -0 -0 -0 -0 -0 -0 -0 -0 -0 -0 -0 -0 -0 -0 -2 -0 -0 -0 -0 -0 -7
-0 -0 -0 -0 -0 -0 -0 -0 -0 -0 -0 -0 -0 -0 -0 -0 -0 -0 -0 -0 -0 -0 -0 -0 -0 -0 -0 -0 -0 -0 -0 -0 -0 -0 -0 -0 -0 -0 -2 -0 -0 -0 -0 -0 -4
Wind_Speed
14 13 12 11 10 9 8 8 8 8 7 7 6 5 5 6 7 7 10 1 3 10 6 10 9 7 7 5 4 4 8 8 6 7 5 5 6 6 3 1 2 3 2 5 13
16 15 13 12 11 10 9 8 9 8 7 7 6 5 4 5 9 12 4 5 4 11 13 14 12 11 8 6 5 8 8 2 3 3 3 4 5 5 3 3 6 6 4 5 12
17 16 14 13 11 9 8 9 9 8 7 6 5 4 4 7 7 4 8 9 7 11 10 8 8 12 9 7 6 4 8 5 6 2 5 5 4 2 4 5 9 6 6 7 10
18 17 16 14 12 10 9 8 8 8 7 5 4 4 4 7 1 7 10 10 9 10 11 11 12 12 9 10 6 8 3 3 4 2 4 5 3 4 3 9 7 6 5 6 10
19 19 17 15 13 11 9 8 6 6 6 4 4 5 6 8 2 6 13 11 12 10 11 12 13 9 10 7 7 8 6 4 5 3 3 2 3 2 4 10 8 5 1 4 8
18 18 18 16 14 12 9 7 5 5 5 5 5 5 6 7 4 9 16 15 11 11 10 10 7 5 6 6 9 4 4 5 5 3 4 6 3 5 10 9 4 3 5 5 7
19 18 17 16 14 12 10 7 5 4 5 6 7 6 7 4 3 11 15 12 10 8 11 5 4 9 8 8 3 4 10 9 8 7 5 4 10 5 7 5 5 6 6 7 8
20 19 17 17 14 12 10 7 4 5 6 7 7 6 5 3 4 13 10 7 6 5 5 6 2 3 6 4 7 9 7 11 9 9 5 8 12 7 6 6 8 9 9 7 5
21 20 17 17 14 11 8 6 5 7 5 8 7 6 3 4 9 13 12 10 10 6 4 5 6 3 7 12 9 8 7 7 10 6 0 8 9 7 4 5 7 10 12 12 8
22 20 18 15 13 9 6 5 7 10 7 6 5 6 7 6 9 12 10 8 9 11 9 9 8 9 9 10 9 8 8 7 8 10 9 8 4 6 4 4 6 8 10 12 11
23 21 18 14 11 6 7 6 8 8 8 8 3 4 5 7 11 12 13 12 10 15 13 14 11 12 13 5 2 4 6 7 5 4 7 11 5 5 5 2 4 7 9 11 11
25 22 19 14 8 5 6 3 6 7 9 10 12 11 7 2 8 12 14 13 14 16 15 9 14 8 3 7 8 9 10 10 5 4 7 8 10 8 5 4 5 5 8 9 10
25 22 17 11 5 6 2 6 7 4 8 3 5 9 10 13 9 17 20 15 14 16 15 16 2 4 13 11 11 12 11 6 9 7 9 9 14 14 10 8 8 7 6 7 7
25 21 15 9 3 2 3 7 7 5 6 8 6 4 9 9 10 10 19 13 8 14 14 11 10 10 13 13 13 13 12 10 8 9 10 7 11 15 15 12 7 7 6 6 6
26 21 13 4 4 1 8 9 3 5 6 4 6 5 5 14 9 12 18 12 14 10 8 7 11 16 16 15 13 12 6 11 10 11 13 14 9 10 11 12 12 9 8 6 5
28 22 14 4 3 6 9 5 5 7 4 4 5 5 8 14 5 9 12 11 9 11 13 15 3 8 9 8 12 4 9 9 11 13 15 17 17 11 14 13 13 10 9 8 7
27 20 9 5 6 12 8 5 7 7 2 3 2 1 6 10 15 10 17 18 13 14 16 18 18 15 10 12 12 11 12 10 12 11 13 1 8 12 9 6 10 13 11 10 9
27 14 3 5 9 8 5 6 7 4 3 5 4 10 8 8 14 16 11 18 22 17 12 13 16 21 14 21 15 20 16 12 11 10 8 8 7 5 6 9 8 11 11 10 10
26 2 1 10 9 6 7 7 5 4 5 9 11 9 10 8 7 9 19 17 17 19 17 9 16 5 6 14 18 12 12 10 16 13 12 14 8 10 10 11 11 12 13 13 12
6 3 7 16 7 6 5 3 2 4 8 5 7 3 6 3 7 8 14 6 18 11 18 18 19 9 9 7 7 12 7 9 11 14 17 11 13 10 15 17 15 15 15 14 15
4 4 10 17 4 5 4 5 3 3 8 5 7 9 11 10 9 11 7 2 5 7 9 12 12 15 7 14 20 11 15 13 11 13 14 15 11 9 12 14 16 16 15 15 16
6 1 12 13 3 2 3 5 4 6 4 5 7 10 13 13 13 16 14 11 6 7 9 9 8 14 19 9 7 12 16 20 13 17 11 14 13 4 4 4 9 13 15 16 15
6 4 8 11 3 4 4 5 3 6 6 5 5 3 6 9 8 14 14 3 7 6 5 6 10 13 18 13 6 13 17 16 18 16 20 16 11 3 5 7 9 13 15 15 15
5 4 4 6 6 6 7 3 5 5 3 6 8 8 9 12 13 9 11 1 9 5 6 5 14 17 18 19 10 14 17 14 17 16 18 21 22 13 9 10 12 13 15 15 16
6 5 5 6 6 9 6 5 9 6 7 6 5 6 8 8 13 17 11 11 12 3 6 6 17 19 22 23 22 16 18 16 20 21 23 20 22 15 7 11 12 14 13 14 17
6 6 4 3 7 9 3 7 11 10 9 8 8 13 14 14 16 20 11 11 11 8 11 5 14 16 23 19 18 21 23 24 25 23 23 22 24 14 11 10 12 10 12 16 18
4 2 5 5 8 7 7 11 14 12 9 7 16 17 17 16 14 15 17 17 18 18 13 10 10 16 25 18 20 26 24 28 28 27 25 25 21 16 17 12 12 12 14 16 16
Wind_Direction
356 352 347 338 327 313 299 288 287 281 277 282 282 284 289 296 277 223 248 90 148 163 222 159 190 191 211 199 228 256 248 228 137 204 88 43 359 63 55 209 211 153 15 61 130
358 355 350 344 333 320 304 291 282 276 275 277 279 279 286 293 256 255 121 123 183 169 192 183 180 186 195 204 196 246 254 101 39 55 333 334 334 355 250 142 152 175 115 129 157
356 356 351 345 335 323 309 292 281 277 275 273 272 272 275 268 256 110 138 156 165 190 199 203 175 196 202 208 177 172 272 129 148 357 319 313 252 332 276 208 45 9 62 173 184
354 354 351 345 338 330 315 293 280 272 266 264 264 260 256 237 275 93 141 159 183 217 176 175 183 196 200 199 179 214 164 197 119 146 292 289 322 219 264 26 352 322 333 184 199
351 351 350 345 339 333 323 308 281 263 257 252 237 230 230 219 110 107 151 160 185 188 182 183 187 191 191 165 180 233 174 192 211 235 273 293 228 352 49 353 325 325 287 245 226
346 346 347 343 338 332 326 315 288 251 232 217 210 208 249 235 78 125 158 169 185 196 181 191 188 228 152 167 233 145 219 231 229 229 165 257 150 227 35 341 345 320 279 238 252
345 343 343 341 335 329 324 313 284 229 198 190 190 238 253 17 87 151 163 183 185 199 179 175 142 215 164 165 150 186 241 199 210 187 157 263 178 72 2 350 7 356 335 290 250
343 341 339 338 332 327 323 317 270 178 171 174 190 239 277 97 148 168 169 154 175 176 238 160 236 163 240 98 187 226 238 205 142 190 148 221 154 85 21 7 26 16 13 356 295
341 339 336 334 327 322 318 302 133 149 155 167 212 248 170 139 184 178 190 173 167 174 152 176 232 220 180 208 194 196 191 226 162 186 345 229 138 98 39 35 40 30 30 32 37
340 336 333 329 323 315 301 242 152 160 189 216 259 241 190 189 147 167 186 174 166 165 162 199 207 207 217 217 229 173 194 198 213 175 223 221 197 124 78 57 52 41 38 48 52
339 335 332 327 317 292 157 178 202 181 208 260 75 308 138 107 151 179 170 176 173 188 195 200 217 214 205 226 313 228 235 231 200 169 247 237 244 149 132 108 75 54 38 41 45
338 336 333 329 310 194 254 274 40 350 288 241 250 251 247 246 173 174 184 190 185 199 208 184 228 224 174 193 207 217 222 217 214 181 247 206 232 170 150 111 76 53 55 49 42
339 337 335 340 118 173 280 53 327 262 264 205 220 232 208 206 219 177 192 207 206 214 202 234 91 252 197 196 210 217 232 215 256 169 232 258 241 192 165 145 118 86 75 64 48
342 341 340 348 200 134 140 342 313 228 268 143 184 167 187 196 219 188 202 197 210 225 216 243 194 182 194 210 215 233 209 234 227 239 254 192 272 175 170 167 159 125 106 92 94
343 346 338 311 348 249 348 325 305 229 264 119 125 107 182 195 110 183 195 206 224 200 201 208 203 209 226 226 208 246 169 226 232 249 264 238 242 262 169 191 170 150 135 124 114
341 341 331 217 224 19 323 298 230 232 215 134 121 180 172 210 203 136 180 226 254 235 223 253 165 209 214 186 199 160 197 226 242 250 241 240 249 251 187 214 154 155 147 144 144
338 331 327 305 347 328 315 218 239 252 86 89 61 317 245 209 218 196 190 201 209 210 223 218 222 220 234 200 193 209 224 232 213 209 247 35 245 243 99 130 166 163 156 158 161
331 319 124 26 330 312 260 234 251 48 354 7 311 297 244 203 219 216 219 216 218 233 275 223 218 211 197 227 212 205 225 253 263 258 242 140 233 220 134 143 149 152 157 160 174
315 190 46 352 337 291 273 247 341 12 349 330 303 258 236 217 257 219 229 233 224 214 232 234 247 135 234 213 227 206 227 267 278 263 265 271 237 165 166 176 174 171 173 178 182
327 278 41 341 322 262 259 305 319 11 334 293 284 281 275 238 246 215 236 230 240 253 225 247 256 211 166 207 211 259 246 211 220 257 256 255 252 279 180 196 189 189 189 185 185
290 246 16 345 266 243 294 37 322 21 355 302 297 283 273 280 272 272 280 181 249 200 235 239 233 236 190 217 235 189 230 234 281 272 274 269 260 178 198 196 197 202 192 186 189
312 288 7 334 257 4 25 345 331 322 346 299 290 281 273 286 276 261 260 258 5 292 227 213 252 238 222 227 307 287 258 228 227 244 236 273 276 110 153 199 209 194 190 191 194
346 332 23 328 36 18 355 299 293 335 349 323 291 351 329 280 277 251 266 55 357 277 317 203 230 245 241 208 216 248 237 248 257 256 258 261 242 115 144 184 190 187 183 192 195
314 330 47 62 52 340 354 345 321 349 292 326 310 285 307 263 254 268 262 104 326 351 323 284 249 252 252 260 263 225 220 231 234 238 248 243 259 184 173 192 184 193 198 197 195
357 58 11 348 13 344 339 332 317 328 333 334 199 30 336 279 274 263 267 304 255 57 299 292 249 248 254 265 273 269 256 217 231 244 250 259 261 273 215 217 214 212 212 201 202
13 347 343 29 333 328 48 43 322 354 318 313 305 338 314 287 290 300 306 294 285 337 304 245 262 255 259 256 259 255 253 258 258 254 249 260 256 263 271 227 254 225 215 211 214
25 93 287 83 347 332 28 343 322 325 292 346 332 307 294 298 320 305 293 284 279 285 290 287 271 244 254 256 259 254 249 248 252 249 251 251 259 254 253 227 241 248 242 219 223